[[{"header":{"parameterUnit":"m.s-1","parameterCategory":2,"la1":30.2991,"la2":30.254,"lo1":-89.0895,"lo2":-89.0444,"dy":0.0017,"dx":0.0017,"nx":28,"ny":28,"refTime":"2024-12-17T09:00:00:Z","depth":"0","parameterNumber":2,"parameterNumberName":"U-component_of_CURRENTS"},"data":[0,0,0,0,0,0,0,0,0,0,0,0,0,0,0,0,0,0,0,0,0,0,0,0,0,0,0,0,0,0,0,0,0,0,0,0,0,0,0,0,0,0,0,0,0,0,0,0,0,0,0,0,0,0,0,0,0,0,0.3891,0.3892,0,0.3988,0.3989,0.399,0.4007,0.4006,0.4005,0.4005,0.3973,0.3973,0.3972,0,0,0,0,0,0,0,0,0,0,0,0,0,0.382,0.382,0.3891,0.3892,0.3894,0.3988,0.3989,0.399,0.4007,0.4006,0.4005,0.4005,0.3973,0.3973,0.3972,0,0,0,0,0,0,0,0,0,0,0,0,0,0.3874,0.3821,0.389,0.3916,0.3919,0.3988,0.3989,0.399,0.4007,0.4006,0.4005,0.4004,0.3973,0.3973,0.3972,0.3985,0,0,0.3971,0.3971,0,0,0,0,0,0,0,0,0.3871,0.3876,0.391,0.3914,0.3918,0.3987,0.3953,0.3983,0.4007,0.397,0.4005,0.4004,0.3968,0.3968,0.3986,0.3984,0.3983,0.3971,0.397,0.397,0.397,0,0,0,0,0,0,0,0.3867,0.3873,0.3926,0.3912,0.3917,0.3957,0.3962,0.3959,0.3968,0.3973,0.3976,0.3992,0.3969,0.3986,0.3985,0.3982,0.3971,0.397,0.397,0.397,0.4019,0.402,0,0,0,0,0,0,0.3857,0.3869,0.3923,0.3929,0.3896,0.3959,0.3965,0.3963,0.3971,0.3973,0.3992,0.3992,0.3988,0.3985,0.3984,0.4024,0.397,0.397,0.3969,0.4017,0.4019,0.4021,0,0,0,0,0,0,0.3855,0.386,0.3919,0.3905,0.3916,0.396,0.3959,0.3966,0.3977,0.3987,0.3986,0.3996,0.3987,0.3984,0.3985,0.4022,0.3969,0.3969,0.4015,0.4018,0.402,0.4088,0,0,0,0,0,0,0.3852,0.3858,0.3858,0.3903,0.3916,0.3953,0.396,0.3968,0.399,0.399,0.399,0.3987,0.3986,0.3986,0.3984,0.402,0.3969,0.4013,0.4016,0.4019,0.4084,0.4093,0.41,0,0,0,0,0,0.3849,0.3851,0.3856,0.3864,0.3911,0.3954,0.3963,0.3991,0.3991,0.3997,0.4003,0.3987,0.4005,0.3986,0.3984,0.4021,0.4012,0.4016,0.4019,0.408,0.4091,0.41,0,0,0,0,0,0,0.3817,0.3855,0.3861,0.3873,0.3907,0.3957,0.3976,0.3989,0.4002,0.3997,0.3997,0.3995,0.4013,0.4004,0.3984,0.4045,0.401,0.4013,0.4058,0.4067,0.4075,0.4093,0.3968,0,0,0,0,0,0.3811,0.3819,0.3862,0.387,0.3889,0.393,0.3951,0.3967,0.3989,0.3994,0.4004,0.4013,0.403,0.4035,0.4042,0.4066,0.4098,0.4092,0.41,0.4107,0.4121,0.4195,0.4212,0.4033,0.4033,0.4033,0,0,0.3797,0.3823,0.3824,0.3864,0.3896,0.3936,0.3939,0.397,0.4006,0.3986,0.4029,0.4033,0.4041,0.4077,0.4086,0.4072,0.4181,0.4112,0.4118,0.4128,0.4201,0.4218,0.4234,0.4035,0.4035,0.4034,0,0,0.3789,0.3801,0.3813,0.3849,0.3898,0.3932,0.3937,0.3988,0.4011,0.4046,0.4054,0.4082,0.4097,0.4132,0.4145,0.42,0.4216,0.4199,0.426,0.4331,0.4347,0.4361,0.445,0.4472,0.4209,0.4209,0.4209,0,0.3767,0.3798,0.3823,0.386,0.3902,0.3929,0.3969,0.4003,0.4047,0.4082,0.406,0.4138,0.4134,0.4209,0.4232,0.4221,0.4267,0.422,0.4343,0.4358,0.4371,0.4459,0.4482,0.4213,0.4213,0.4212,0.4212,0,0.3787,0.3814,0.383,0.3887,0.3931,0.3966,0.4027,0.4069,0.4097,0.4137,0.4205,0.4218,0.4272,0.4278,0.4269,0.437,0.4376,0.4341,0.432,0.4393,0.4481,0.4504,0.4218,0.4217,0.4216,0.4215,0,0,0.3725,0.382,0.3824,0.3869,0.3952,0.399,0.4067,0.4151,0.421,0.4249,0.4335,0.4372,0.4388,0.4405,0.4411,0.4468,0.4601,0.4448,0.445,0.4541,0.4787,0.4785,0.4809,0.4587,0.4591,0.4594,0.4821,0,0.3731,0.38,0.3854,0.3932,0.3983,0.4056,0.4126,0.4205,0.4271,0.4358,0.4401,0.4463,0.4435,0.4465,0.4526,0.4575,0.4659,0.4545,0.4699,0.4704,0.4696,0.4834,0.4631,0.4815,0.4843,0.4846,0.4849,0,0.3739,0.3794,0.3863,0.398,0.4007,0.4054,0.4195,0.4259,0.4386,0.4442,0.453,0.4562,0.467,0.4614,0.478,0.471,0.4766,0.4798,0.4807,0.4795,0.4744,0.4741,0.4855,0.4751,0.4884,0.4881,0.4878,0,0.3706,0.3804,0.3861,0.39,0.4026,0.4078,0.4146,0.4277,0.4361,0.4499,0.4574,0.4691,0.4762,0.4846,0.4937,0.4867,0.512,0.5027,0.5092,0.5093,0.4946,0.4928,0.4976,0.5162,0.5162,0.5161,0.5161,0,0.3706,0.3755,0.3843,0.388,0.3963,0.4052,0.4157,0.4252,0.4397,0.4509,0.4602,0.472,0.4821,0.4969,0.5017,0.5163,0.5203,0.5151,0.5165,0.4967,0.4949,0.4869,0.4816,0.517,0.5168,0.5166,0.5165,0,0.3671,0.3723,0.3799,0.3911,0.3949,0.4004,0.4161,0.4238,0.4376,0.4536,0.4586,0.4787,0.4981,0.5111,0.5282,0.5279,0.5267,0.5436,0.5216,0.5199,0.5093,0.5051,0.4952,0.4806,0.5523,0.5524,0.5526,0,0.3667,0.3695,0.38,0.3844,0.3893,0.3989,0.4057,0.421,0.4303,0.4577,0.4645,0.4896,0.5074,0.5356,0.54,0.5544,0.5367,0.5418,0.523,0.5114,0.5078,0.4849,0.4714,0.5077,0.5074,0.5072,0.5071,0,0.367,0.3688,0.3747,0.3825,0.3888,0.3971,0.4076,0.4146,0.4337,0.4478,0.4694,0.4868,0.5162,0.5227,0.5429,0.5463,0.5152,0.538,0.5301,0.4794,0.4504,0.4359,0.4925,0.5053,0.5054,0.5056,0.5057,0.5057,0.3666,0.3696,0.3756,0.3824,0.3879,0.3929,0.3967,0.408,0.4209,0.4397,0.4624,0.4809,0.5011,0.5253,0.5268,0.5144,0.5082,0.4974,0.4961,0.476,0.4518,0.5076,0.5185,0.5187,0.5189,0.5191,0.5193,0,0.3701,0.3726,0.377,0.3825,0.3836,0.3889,0.3967,0.3977,0.406,0.427,0.4449,0.4626,0.4753,0.4872,0.4868,0.4726,0.4459,0.4622,0.4224,0.4131,0.4681,0.4559,0.4485,0.4485,0.4485,0.4485,0.4485,0.4485,0.3725,0.3766,0.3772,0.3773,0.3791,0.3765,0.378,0.3794,0.3889,0.3971,0.4048,0.4192,0.4463,0.4657,0.4547,0.443,0.4079,0.3927,0.393,0.4314,0.4342,0.4368,0.424,0.4101,0.41,0.3145,0.3139,0.3134]},{"header":{"parameterUnit":"m.s-1","parameterCategory":2,"la1":30.2991,"la2":30.254,"lo1":-89.0895,"lo2":-89.0444,"dy":0.0017,"dx":0.0017,"nx":28,"ny":28,"refTime":"2024-12-17T09:00:00:Z","depth":"0","parameterNumber":3,"parameterNumberName":"V-component_of_CURRENTS"},"data":[0,0,0,0,0,0,0,0,0,0,0,0,0,0,0,0,0,0,0,0,0,0,0,0,0,0,0,0,0,0,0,0,0,0,0,0,0,0,0,0,0,0,0,0,0,0,0,0,0,0,0,0,0,0,0,0,0,0,-0.0538,-0.0538,0,-0.0609,-0.0611,-0.0612,-0.0709,-0.0709,-0.071,-0.0711,-0.0791,-0.0792,-0.0793,0,0,0,0,0,0,0,0,0,0,0,0,0,-0.0635,-0.0632,-0.0538,-0.0538,-0.0538,-0.0609,-0.0611,-0.0612,-0.0708,-0.071,-0.0711,-0.0712,-0.079,-0.0792,-0.0793,0,0,0,0,0,0,0,0,0,0,0,0,0,-0.0645,-0.0631,-0.0538,-0.0589,-0.0594,-0.0609,-0.0611,-0.0613,-0.0708,-0.071,-0.0711,-0.0712,-0.079,-0.0791,-0.0793,-0.0778,0,0,-0.0799,-0.08,0,0,0,0,0,0,0,0,-0.0644,-0.0642,-0.0581,-0.0586,-0.0591,-0.0645,-0.0674,-0.0666,-0.0708,-0.0673,-0.0711,-0.0713,-0.0736,-0.0743,-0.0764,-0.0782,-0.0785,-0.0799,-0.0801,-0.0801,-0.0802,0,0,0,0,0,0,0,-0.0643,-0.064,-0.0574,-0.0581,-0.0587,-0.0659,-0.0662,-0.0674,-0.0702,-0.0676,-0.0681,-0.0676,-0.074,-0.0762,-0.0767,-0.0786,-0.0799,-0.0801,-0.0802,-0.0803,-0.0825,-0.0824,0,0,0,0,0,0,-0.0608,-0.0638,-0.0572,-0.0576,-0.0613,-0.0655,-0.0658,-0.0632,-0.0702,-0.0712,-0.0675,-0.068,-0.0758,-0.0764,-0.077,-0.0763,-0.0801,-0.0803,-0.0804,-0.0825,-0.0825,-0.0824,0,0,0,0,0,0,-0.061,-0.0601,-0.0569,-0.0605,-0.0604,-0.065,-0.0622,-0.0633,-0.0649,-0.07,-0.0712,-0.0678,-0.076,-0.0767,-0.077,-0.0766,-0.0804,-0.0806,-0.0826,-0.0825,-0.0824,-0.0745,0,0,0,0,0,0,-0.0612,-0.0601,-0.0581,-0.0601,-0.0601,-0.0561,-0.062,-0.0633,-0.064,-0.0648,-0.0706,-0.0716,-0.0761,-0.0766,-0.0772,-0.077,-0.0807,-0.0827,-0.0826,-0.0825,-0.0748,-0.0741,-0.0735,0,0,0,0,0,-0.0615,-0.0567,-0.0579,-0.0572,-0.0567,-0.0558,-0.0565,-0.061,-0.0639,-0.0634,-0.0674,-0.0714,-0.0765,-0.0766,-0.0773,-0.0772,-0.0827,-0.0826,-0.0825,-0.0751,-0.0742,-0.0735,0,0,0,0,0,0,-0.0573,-0.0572,-0.0586,-0.0533,-0.054,-0.0571,-0.0564,-0.0594,-0.0624,-0.0631,-0.0692,-0.0703,-0.071,-0.0743,-0.0744,-0.0776,-0.0808,-0.0808,-0.0749,-0.0742,-0.0736,-0.0717,-0.0809,0,0,0,0,0,-0.0555,-0.0532,-0.0538,-0.0492,-0.0491,-0.0527,-0.0531,-0.0556,-0.0578,-0.0595,-0.0637,-0.068,-0.071,-0.0725,-0.0754,-0.0756,-0.0785,-0.0765,-0.0759,-0.0753,-0.0743,-0.0798,-0.0796,-0.082,-0.082,-0.082,0,0,-0.0518,-0.0518,-0.0499,-0.0485,-0.0496,-0.0481,-0.0534,-0.0521,-0.0521,-0.0594,-0.0606,-0.065,-0.0702,-0.0718,-0.0725,-0.0745,-0.0753,-0.0751,-0.0746,-0.0739,-0.0796,-0.0794,-0.0792,-0.0819,-0.0819,-0.0819,0,0,-0.0437,-0.0434,-0.0397,-0.0403,-0.0407,-0.0433,-0.042,-0.0447,-0.0474,-0.0478,-0.0543,-0.0575,-0.0614,-0.0664,-0.0691,-0.066,-0.0713,-0.0678,-0.0635,-0.0689,-0.0687,-0.0686,-0.0682,-0.0681,-0.0681,-0.068,-0.068,0,-0.039,-0.0353,-0.0381,-0.0355,-0.0357,-0.0402,-0.0371,-0.0394,-0.0425,-0.0443,-0.0466,-0.0545,-0.0591,-0.0624,-0.0626,-0.0646,-0.0669,-0.0659,-0.068,-0.068,-0.0681,-0.0677,-0.0677,-0.0677,-0.0677,-0.0677,-0.0678,0,-0.03,-0.0276,-0.0248,-0.0243,-0.0249,-0.0223,-0.0258,-0.0274,-0.0313,-0.0347,-0.0382,-0.0447,-0.05,-0.0527,-0.0567,-0.06,-0.0608,-0.066,-0.0697,-0.0673,-0.067,-0.0672,-0.0671,-0.0672,-0.0673,-0.0674,0,0,-0.0179,-0.0184,-0.0175,-0.0173,-0.0195,-0.0184,-0.0188,-0.021,-0.0206,-0.0263,-0.0269,-0.0346,-0.0395,-0.0428,-0.0494,-0.0546,-0.0563,-0.0601,-0.0606,-0.059,-0.064,-0.0544,-0.0537,-0.0629,-0.063,-0.0631,-0.0623,0,-0.0102,-0.0043,-0.0077,-0.0032,-0.0013,-0.0074,-0.0073,-0.0105,-0.014,-0.0154,-0.0244,-0.0266,-0.0353,-0.0373,-0.0441,-0.0524,-0.0571,-0.0557,-0.0671,-0.0673,-0.0587,-0.0538,-0.0508,-0.049,-0.0625,-0.0625,-0.0626,0,-0.0019,0.0001,0.0057,0.0045,0.0051,0.0065,0.0041,0.0036,-0.001,-0.0033,-0.0088,-0.015,-0.0219,-0.0301,-0.0435,-0.0423,-0.0523,-0.0598,-0.0601,-0.0541,-0.0581,-0.0545,-0.049,-0.0725,-0.0629,-0.0629,-0.0629,0,0.0048,0.0086,0.0125,0.0126,0.0117,0.0119,0.0107,0.0072,0.0095,0.0044,0.0073,-0.0044,-0.0054,-0.0221,-0.0346,-0.0408,-0.0468,-0.058,-0.0586,-0.0579,-0.0588,-0.0579,-0.0769,-0.069,-0.069,-0.069,-0.069,0,0.012,0.0151,0.0163,0.0185,0.0242,0.0189,0.0245,0.0215,0.0217,0.0297,0.0146,0.0209,-0.0038,-0.0094,-0.0281,-0.0378,-0.0417,-0.0548,-0.057,-0.0552,-0.0541,-0.0774,-0.0922,-0.069,-0.069,-0.069,-0.069,0,0.0179,0.0187,0.0237,0.0255,0.0276,0.0308,0.0363,0.0415,0.0386,0.0491,0.0489,0.0419,0.0367,0.0161,-0.0048,-0.023,-0.0496,-0.0422,-0.0337,-0.0349,-0.0603,-0.0745,-0.0924,-0.1036,-0.0455,-0.0452,-0.045,0,0.0209,0.0244,0.0312,0.0377,0.0394,0.0452,0.0518,0.0506,0.0588,0.066,0.0742,0.0716,0.0787,0.0544,0.0209,-0.0054,-0.0344,-0.025,-0.0386,-0.0577,-0.0756,-0.0878,-0.0971,-0.0364,-0.0361,-0.0359,-0.0357,0,0.0268,0.0297,0.0355,0.0492,0.0581,0.0682,0.0775,0.0871,0.0906,0.1035,0.1209,0.1271,0.1072,0.0855,0.0476,0.0232,-0.0412,-0.0212,-0.0475,-0.0729,-0.0816,-0.0944,-0.0375,-0.0338,-0.034,-0.0341,-0.0342,-0.0343,0.0326,0.0388,0.0485,0.0613,0.0738,0.0892,0.0994,0.1154,0.1342,0.158,0.1611,0.1812,0.1395,0.0907,0.0531,-0.0172,-0.0238,-0.0437,-0.0596,-0.0702,-0.0811,-0.0139,-0.0089,-0.0089,-0.009,-0.009,-0.009,0,0.0389,0.0471,0.0604,0.076,0.0916,0.0953,0.1163,0.1306,0.1588,0.1918,0.214,0.2134,0.1592,0.0957,0.0019,-0.0488,-0.0758,-0.0792,-0.1037,-0.1121,-0.0579,-0.0576,-0.055,-0.055,-0.055,-0.055,-0.0549,-0.0549,0.0432,0.0554,0.0619,0.0872,0.0998,0.1197,0.1319,0.1595,0.1865,0.2327,0.2565,0.2694,0.2203,0.0477,-0.069,-0.0967,-0.1411,-0.1449,-0.167,-0.1384,-0.1367,-0.135,-0.1386,-0.153,-0.1531,-0.217,-0.2176,-0.2181]}],[{"header":{"parameterUnit":"m.s-1","parameterCategory":2,"la1":30.2991,"la2":30.254,"lo1":-89.0895,"lo2":-89.0444,"dy":0.0017,"dx":0.0017,"nx":28,"ny":28,"refTime":"2024-12-17T09:00:00:Z","depth":"2","parameterNumber":2,"parameterNumberName":"U-component_of_CURRENTS"},"data":[0,0,0,0,0,0,0,0,0,0,0,0,0,0,0,0,0,0,0,0,0,0,0,0,0,0,0,0,0,0,0,0,0,0,0,0,0,0,0,0,0,0,0,0,0,0,0,0,0,0,0,0,0,0,0,0,0,0,0.2787,0.2788,0,0.2822,0.2822,0.2822,0.2867,0.2868,0.2869,0.287,0.2898,0.2898,0.2898,0,0,0,0,0,0,0,0,0,0,0,0,0,0.2706,0.2707,0.2787,0.2788,0.2788,0.2822,0.2822,0.2822,0.2867,0.2869,0.287,0.2871,0.2898,0.2898,0.2898,0,0,0,0,0,0,0,0,0,0,0,0,0,0.2738,0.2707,0.2787,0.2817,0.282,0.2822,0.2822,0.2822,0.2867,0.2869,0.287,0.2871,0.2898,0.2898,0.2898,0.2867,0,0,0.2897,0.2897,0,0,0,0,0,0,0,0,0.2736,0.2741,0.2812,0.2815,0.2818,0.2844,0.2804,0.2838,0.2867,0.2846,0.287,0.2872,0.288,0.2881,0.2881,0.2868,0.2869,0.2897,0.2897,0.2897,0.2897,0,0,0,0,0,0,0,0.2734,0.2739,0.2798,0.2812,0.2816,0.281,0.2817,0.281,0.2852,0.2848,0.2852,0.286,0.2882,0.2881,0.2882,0.287,0.2897,0.2897,0.2897,0.2896,0.2957,0.2959,0,0,0,0,0,0,0.2737,0.2737,0.2797,0.2799,0.2783,0.2811,0.2818,0.2832,0.2853,0.2858,0.2859,0.2862,0.2881,0.2882,0.2883,0.2951,0.2897,0.2896,0.2896,0.2955,0.2958,0.2959,0,0,0,0,0,0,0.2735,0.2742,0.2796,0.2771,0.2778,0.2812,0.2827,0.2832,0.2859,0.2861,0.2866,0.2883,0.2882,0.2884,0.2919,0.2948,0.2896,0.2896,0.2953,0.2956,0.2958,0.302,0,0,0,0,0,0,0.2732,0.2741,0.2748,0.2771,0.2779,0.2825,0.2826,0.2832,0.2861,0.2866,0.2883,0.2885,0.2883,0.2919,0.2918,0.2947,0.2896,0.2951,0.2955,0.2958,0.3016,0.3024,0.3032,0,0,0,0,0,0.2729,0.2737,0.2748,0.2755,0.279,0.2827,0.2831,0.2856,0.2861,0.2883,0.2901,0.2886,0.294,0.292,0.2919,0.2948,0.2949,0.2954,0.2957,0.3012,0.3023,0.3032,0,0,0,0,0,0,0.271,0.2744,0.2756,0.2775,0.2812,0.2836,0.2854,0.2866,0.2894,0.2903,0.2902,0.2907,0.2952,0.2941,0.2919,0.2978,0.2944,0.2948,0.2986,0.2996,0.3004,0.3038,0.2896,0,0,0,0,0,0.2707,0.2722,0.2761,0.278,0.2801,0.2828,0.2844,0.2866,0.2894,0.2908,0.2917,0.2934,0.296,0.2972,0.2987,0.3008,0.303,0.3029,0.3037,0.3044,0.3073,0.3142,0.316,0.2972,0.2972,0.2972,0,0,0.2708,0.2725,0.2737,0.2776,0.2804,0.2838,0.2843,0.2883,0.2912,0.2904,0.2944,0.2961,0.2974,0.3014,0.3031,0.3011,0.3106,0.3049,0.3055,0.3081,0.3148,0.3167,0.3183,0.2975,0.2975,0.2974,0,0,0.2716,0.2736,0.2756,0.2785,0.2832,0.2853,0.2872,0.2911,0.2936,0.297,0.2986,0.3033,0.3041,0.3078,0.3091,0.315,0.3149,0.3147,0.3211,0.3277,0.3294,0.3308,0.3347,0.3364,0.3147,0.3147,0.3147,0,0.2715,0.2744,0.2769,0.2797,0.2828,0.2865,0.2905,0.293,0.2974,0.301,0.2994,0.3076,0.3077,0.3161,0.3187,0.317,0.3201,0.3169,0.3289,0.3304,0.3318,0.3354,0.3373,0.3151,0.315,0.315,0.315,0,0.2735,0.2766,0.2786,0.2833,0.2871,0.2912,0.296,0.3002,0.3027,0.3057,0.3144,0.3163,0.3224,0.3224,0.3221,0.3329,0.3316,0.3293,0.3265,0.3341,0.3373,0.3392,0.3156,0.3155,0.3153,0.3153,0,0,0.2722,0.2786,0.2797,0.2825,0.2896,0.2928,0.2997,0.3076,0.3136,0.3174,0.3262,0.3309,0.3343,0.3365,0.3377,0.343,0.3537,0.3411,0.3412,0.345,0.3681,0.3632,0.3647,0.3541,0.3545,0.3548,0.3658,0,0.2738,0.2791,0.2824,0.2888,0.2928,0.2989,0.3048,0.3124,0.319,0.3278,0.3337,0.3412,0.3388,0.3434,0.3492,0.3534,0.3593,0.351,0.3602,0.3605,0.3553,0.3669,0.3392,0.3465,0.3676,0.3679,0.3681,0,0.2749,0.2787,0.2849,0.2926,0.2951,0.2993,0.312,0.3178,0.3315,0.3386,0.3497,0.3529,0.3642,0.3595,0.3727,0.3679,0.3701,0.3715,0.3719,0.3673,0.3592,0.3427,0.3491,0.3712,0.371,0.3707,0.3705,0,0.2725,0.2802,0.2851,0.2876,0.2969,0.302,0.3083,0.3216,0.33,0.3473,0.3555,0.3679,0.3765,0.3815,0.3855,0.3802,0.3989,0.3906,0.3884,0.3878,0.3663,0.3633,0.4013,0.4013,0.4013,0.4013,0.4012,0,0.2721,0.2757,0.2842,0.2864,0.2933,0.3012,0.312,0.3217,0.3388,0.3505,0.3609,0.3722,0.3831,0.3928,0.3926,0.3989,0.4053,0.3939,0.3927,0.3674,0.3645,0.3868,0.385,0.4017,0.4016,0.4015,0.4014,0,0.2682,0.2736,0.2784,0.2883,0.2917,0.297,0.3128,0.3221,0.3385,0.3552,0.3611,0.3808,0.393,0.4007,0.4122,0.4092,0.4133,0.4135,0.3828,0.3779,0.3946,0.393,0.41,0.41,0.41,0.41,0.4099,0,0.2664,0.2688,0.2779,0.2824,0.2868,0.2968,0.3048,0.3217,0.3325,0.3581,0.365,0.384,0.3936,0.4101,0.4117,0.4144,0.4175,0.3892,0.3736,0.3996,0.3967,0.3951,0.3936,0.3459,0.3454,0.3449,0.3446,0,0.2638,0.2669,0.2719,0.2802,0.2876,0.2945,0.3066,0.3132,0.3339,0.3463,0.3623,0.3712,0.3912,0.3846,0.3942,0.3902,0.3858,0.3802,0.4193,0.3486,0.3403,0.337,0.3374,0.3407,0.341,0.3413,0.3415,0.3417,0.2628,0.2641,0.2716,0.2771,0.2855,0.2888,0.2893,0.3023,0.3122,0.324,0.3443,0.3488,0.3606,0.3586,0.351,0.3472,0.3706,0.352,0.3529,0.3544,0.3457,0.3378,0.3359,0.3363,0.3366,0.3369,0.3371,0,0.2613,0.2618,0.2688,0.2727,0.2742,0.2828,0.2879,0.2842,0.286,0.3029,0.3117,0.295,0.2961,0.3052,0.2954,0.2985,0.2901,0.2843,0.2698,0.2744,0.2783,0.265,0.2342,0.2338,0.2334,0.233,0,0,0.2609,0.2628,0.263,0.2588,0.2622,0.2592,0.2567,0.2522,0.2571,0.2536,0.2563,0.2812,0.2985,0.2607,0.2597,0.2444,0.255,0.2353,0.3198,0.3074,0.3107,0.3221,0.3077,0,0,0,0,0]},{"header":{"parameterUnit":"m.s-1","parameterCategory":2,"la1":30.2991,"la2":30.254,"lo1":-89.0895,"lo2":-89.0444,"dy":0.0017,"dx":0.0017,"nx":28,"ny":28,"refTime":"2024-12-17T09:00:00:Z","depth":"2","parameterNumber":3,"parameterNumberName":"V-component_of_CURRENTS"},"data":[0,0,0,0,0,0,0,0,0,0,0,0,0,0,0,0,0,0,0,0,0,0,0,0,0,0,0,0,0,0,0,0,0,0,0,0,0,0,0,0,0,0,0,0,0,0,0,0,0,0,0,0,0,0,0,0,0,0,0.0168,0.0168,0,0.0112,0.0111,0.011,0.005,0.0049,0.0048,0.0048,-0.0073,-0.0075,-0.0078,0,0,0,0,0,0,0,0,0,0,0,0,0,0.0222,0.0221,0.0168,0.0168,0.0167,0.0112,0.0111,0.011,0.005,0.0049,0.0048,0.0047,-0.0072,-0.0075,-0.0078,0,0,0,0,0,0,0,0,0,0,0,0,0,0.0183,0.0221,0.0168,0.0132,0.0129,0.0112,0.0111,0.011,0.005,0.0049,0.0048,0.0047,-0.0071,-0.0075,-0.0079,-0.0084,0,0,-0.0091,-0.0092,0,0,0,0,0,0,0,0,0.0186,0.0181,0.0138,0.0135,0.0131,0.0089,0.0086,0.0043,0.005,0.0077,0.0048,0.0047,-0.0022,-0.003,-0.0042,-0.009,-0.0095,-0.0091,-0.0093,-0.0095,-0.0096,0,0,0,0,0,0,0,0.0188,0.0183,0.0143,0.0138,0.0133,0.0119,0.0112,0.0078,0.003,0.0075,0.0071,0.0069,-0.0025,-0.0037,-0.0045,-0.0097,-0.0091,-0.0094,-0.0097,-0.0098,-0.0187,-0.0187,0,0,0,0,0,0,0.0201,0.0186,0.0145,0.0142,0.0159,0.0119,0.0111,0.0101,0.0032,0.0022,0.007,0.0066,-0.003,-0.004,-0.0049,-0.0067,-0.0095,-0.0099,-0.0101,-0.0187,-0.0187,-0.0187,0,0,0,0,0,0,0.0203,0.0198,0.0148,0.0165,0.0158,0.0119,0.0109,0.0101,0.0086,0.0029,0.0017,0.0063,-0.0031,-0.0044,-0.0085,-0.0072,-0.0101,-0.0104,-0.0187,-0.0187,-0.0187,-0.0098,0,0,0,0,0,0,0.0204,0.0199,0.02,0.0166,0.0158,0.014,0.011,0.0101,0.0088,0.0083,0.002,0.0008,-0.0033,-0.0078,-0.0088,-0.0078,-0.0107,-0.0187,-0.0187,-0.0187,-0.0101,-0.0095,-0.009,0,0,0,0,0,0.0206,0.0211,0.02,0.0195,0.0159,0.014,0.0135,0.0102,0.0089,0.0085,0.004,0.001,-0.0086,-0.0081,-0.0093,-0.0084,-0.0187,-0.0187,-0.0187,-0.0103,-0.0096,-0.009,0,0,0,0,0,0,0.0227,0.0204,0.0191,0.0186,0.0167,0.0131,0.0128,0.0109,0.0073,0.0066,0.001,-0.0006,-0.0037,-0.0075,-0.0069,-0.0112,-0.0141,-0.0144,-0.0073,-0.0067,-0.0062,-0.0039,-0.0111,0,0,0,0,0,0.0236,0.0236,0.0208,0.0204,0.0198,0.0166,0.0156,0.0136,0.0101,0.0084,0.0042,-0.0005,-0.0045,-0.0067,-0.0109,-0.0129,-0.0163,-0.0133,-0.0127,-0.0122,-0.0113,-0.0156,-0.0153,-0.0187,-0.0187,-0.0187,0,0,0.0241,0.0232,0.0229,0.021,0.0192,0.0195,0.0156,0.0146,0.015,0.0077,0.0064,0.0013,-0.0047,-0.0073,-0.009,-0.0103,-0.013,-0.0122,-0.0117,-0.0111,-0.0156,-0.0152,-0.0149,-0.0187,-0.0187,-0.0187,0,0,0.0263,0.0245,0.0257,0.0248,0.0234,0.0217,0.0218,0.0187,0.0173,0.015,0.0101,0.006,-0.0,-0.0036,-0.0063,-0.0052,-0.01,-0.0068,-0.0019,-0.006,-0.0057,-0.0055,-0.0086,-0.0088,-0.0063,-0.0063,-0.0063,0,0.0272,0.0286,0.0257,0.027,0.0278,0.0233,0.0255,0.0233,0.0193,0.0191,0.0154,0.0073,0.002,-0.0004,-0.0006,-0.0037,-0.0067,-0.0035,-0.005,-0.0049,-0.0048,-0.0081,-0.0084,-0.0059,-0.0059,-0.006,-0.006,0,0.0308,0.0319,0.0326,0.0333,0.0334,0.0344,0.032,0.0312,0.0287,0.0265,0.0232,0.0152,0.0106,0.008,0.0036,0.002,-0.0005,-0.0037,-0.006,-0.0039,-0.0076,-0.008,-0.0053,-0.0054,-0.0055,-0.0057,0,0,0.0325,0.035,0.0353,0.0386,0.0376,0.0389,0.0392,0.0394,0.0413,0.0346,0.0359,0.0269,0.0223,0.0188,0.0127,0.0084,0.0057,0.0031,0.0027,0.0014,-0.0027,-0.0058,-0.0067,0.0022,0.0022,0.0022,-0.0051,0,0.0366,0.0426,0.0421,0.0479,0.0513,0.0488,0.0506,0.0499,0.0474,0.0469,0.0382,0.0358,0.0266,0.0247,0.0188,0.0094,0.0049,0.0081,-0.0058,-0.0062,-0.0081,-0.0072,-0.0044,-0.0108,-0.0056,-0.0057,-0.0057,0,0.0407,0.0451,0.0521,0.0586,0.0598,0.0619,0.066,0.0673,0.0642,0.0618,0.0562,0.0492,0.0418,0.0336,0.0182,0.0207,0.0098,0.0016,0.001,-0.0052,-0.0101,-0.0125,-0.0119,-0.0065,-0.0065,-0.0064,-0.0063,0,0.0464,0.0525,0.0597,0.0615,0.0665,0.0694,0.072,0.0717,0.0754,0.0714,0.072,0.0608,0.0569,0.041,0.0223,0.0205,0.0056,0.0009,-0.0121,-0.0124,-0.0145,-0.0149,-0.0099,-0.0099,-0.0098,-0.0098,-0.0098,0,0.0521,0.0577,0.0631,0.0671,0.0767,0.0774,0.0859,0.0858,0.0875,0.0936,0.0805,0.0814,0.0585,0.0466,0.0274,0.0069,0.009,-0.0108,-0.0146,-0.0114,-0.0114,-0.0116,-0.0117,-0.0101,-0.01,-0.01,-0.0099,0,0.0569,0.0598,0.069,0.0765,0.0795,0.0866,0.0962,0.1025,0.1015,0.1087,0.108,0.0979,0.0821,0.058,0.0341,0.0157,-0.005,-0.013,-0.0073,-0.0104,-0.0215,-0.0211,-0.0279,-0.0281,-0.0282,-0.0283,-0.0284,0,0.06,0.065,0.0763,0.0829,0.0866,0.0969,0.1046,0.1087,0.1164,0.1196,0.1244,0.1117,0.104,0.0666,0.0324,-0.0011,-0.0053,-0.02,-0.0242,-0.0204,-0.0234,-0.0227,-0.0221,-0.0232,-0.0233,-0.0233,-0.0233,0,0.0665,0.0698,0.078,0.0916,0.1012,0.1136,0.125,0.1338,0.1402,0.1452,0.1502,0.1442,0.1085,0.0748,0.0284,0.0058,-0.015,-0.022,-0.019,-0.0191,-0.0166,-0.0193,-0.0188,-0.0237,-0.0237,-0.0237,-0.0236,-0.0236,0.0711,0.0781,0.0885,0.1019,0.1136,0.1293,0.1412,0.1534,0.1672,0.176,0.1698,0.1607,0.1217,0.0618,0.0223,-0.0184,-0.0173,-0.0317,-0.0313,-0.0309,-0.0291,-0.027,-0.0356,-0.0357,-0.0357,-0.0357,-0.0357,0,0.0781,0.0861,0.0984,0.1149,0.1294,0.1343,0.1545,0.1663,0.1839,0.1885,0.19,0.1525,0.1126,0.0682,0.0071,-0.0297,-0.0317,-0.0403,-0.0349,-0.0343,-0.0338,-0.0319,-0.0394,-0.0395,-0.0396,-0.0397,0,0,0.0821,0.0947,0.1015,0.1255,0.1376,0.1582,0.1709,0.1864,0.1948,0.199,0.1928,0.1792,0.125,0.0808,0.0302,-0.0045,-0.0102,-0.0108,-0.0041,0.0088,0.0098,-0.0255,-0.0215,0,0,0,0,0]}],[{"header":{"parameterUnit":"m.s-1","parameterCategory":2,"la1":30.2991,"la2":30.254,"lo1":-89.0895,"lo2":-89.0444,"dy":0.0017,"dx":0.0017,"nx":28,"ny":28,"refTime":"2024-12-17T09:00:00:Z","depth":"4","parameterNumber":2,"parameterNumberName":"U-component_of_CURRENTS"},"data":[0,0,0,0,0,0,0,0,0,0,0,0,0,0,0,0,0,0,0,0,0,0,0,0,0,0,0,0,0,0,0,0,0,0,0,0,0,0,0,0,0,0,0,0,0,0,0,0,0,0,0,0,0,0,0,0,0,0,0.1665,0.1666,0,0.1736,0.1737,0.1737,0.1782,0.1782,0.1782,0.1783,0.1894,0.1897,0.1899,0,0,0,0,0,0,0,0,0,0,0,0,0,0.1544,0.1546,0.1665,0.1666,0.1667,0.1736,0.1737,0.1738,0.1782,0.1782,0.1782,0.1783,0.1893,0.1896,0.19,0,0,0,0,0,0,0,0,0,0,0,0,0,0.1602,0.1546,0.1665,0.1699,0.1702,0.1736,0.1737,0.1738,0.1781,0.1782,0.1783,0.1783,0.1892,0.1896,0.19,0.1913,0,0,0.1912,0.1914,0,0,0,0,0,0,0,0,0.1599,0.1607,0.1693,0.1696,0.1701,0.1752,0.1735,0.1799,0.1781,0.175,0.1783,0.1783,0.1851,0.1858,0.1868,0.1918,0.1923,0.1912,0.1915,0.1916,0.1918,0,0,0,0,0,0,0,0.1595,0.1604,0.1692,0.1694,0.1699,0.1702,0.1711,0.1747,0.1796,0.1753,0.1756,0.1766,0.1853,0.1864,0.1871,0.1924,0.1912,0.1916,0.1918,0.192,0.2086,0.2088,0,0,0,0,0,0,0.159,0.16,0.1689,0.1694,0.1652,0.1704,0.1714,0.1734,0.1795,0.1805,0.1766,0.1768,0.1857,0.1866,0.1875,0.1975,0.1916,0.192,0.1922,0.2084,0.2086,0.2089,0,0,0,0,0,0,0.1588,0.1598,0.1687,0.1649,0.1661,0.1706,0.1727,0.1735,0.1781,0.1805,0.1815,0.1809,0.1858,0.1869,0.194,0.1976,0.1922,0.1925,0.2082,0.2085,0.2088,0.2122,0,0,0,0,0,0,0.1584,0.1597,0.1627,0.1649,0.1663,0.1728,0.1727,0.1736,0.1785,0.179,0.1845,0.1853,0.1859,0.1934,0.1944,0.1981,0.1928,0.2079,0.2083,0.2087,0.2119,0.2126,0.2133,0,0,0,0,0,0.1579,0.1608,0.1628,0.164,0.1697,0.1729,0.1737,0.1768,0.1787,0.1812,0.1854,0.1854,0.1966,0.1939,0.195,0.1989,0.2077,0.2082,0.2086,0.2115,0.2125,0.2133,0,0,0,0,0,0,0.1576,0.1616,0.1638,0.1681,0.1715,0.1738,0.177,0.1791,0.1843,0.1863,0.1881,0.1893,0.1969,0.1979,0.1949,0.205,0.2021,0.2028,0.204,0.2049,0.2056,0.2061,0.1932,0,0,0,0,0,0.1589,0.1623,0.1658,0.1698,0.1718,0.1753,0.1778,0.1803,0.1842,0.1867,0.1906,0.1951,0.199,0.2021,0.2058,0.2115,0.213,0.2148,0.2155,0.2161,0.2174,0.2225,0.2238,0.2104,0.2104,0.2104,0,0,0.1598,0.1627,0.1648,0.17,0.1731,0.1764,0.1771,0.1822,0.1858,0.1871,0.195,0.1984,0.2013,0.2074,0.2109,0.2091,0.2208,0.2167,0.2171,0.2182,0.2231,0.2244,0.2256,0.2107,0.2107,0.2106,0,0,0.1616,0.1664,0.1692,0.1723,0.1778,0.1801,0.1824,0.1874,0.191,0.1977,0.1999,0.2057,0.2121,0.2147,0.2165,0.2238,0.2245,0.2257,0.2296,0.2345,0.2356,0.2366,0.2399,0.2411,0.2257,0.2257,0.2257,0,0.163,0.1669,0.1706,0.1738,0.1769,0.182,0.1855,0.1896,0.1967,0.2005,0.2011,0.2126,0.2151,0.2219,0.2244,0.2254,0.2281,0.2255,0.2353,0.2363,0.2373,0.2404,0.2417,0.2259,0.2259,0.2259,0.2259,0,0.1653,0.1699,0.172,0.1778,0.1817,0.186,0.1914,0.1971,0.2023,0.2064,0.2161,0.2199,0.2267,0.2282,0.2285,0.2372,0.2369,0.2355,0.2325,0.2388,0.2417,0.243,0.2263,0.2262,0.2261,0.2261,0,0,0.1639,0.172,0.173,0.1757,0.1844,0.1867,0.1948,0.2022,0.208,0.2157,0.2229,0.2302,0.2344,0.2369,0.2391,0.243,0.2514,0.2429,0.2431,0.2451,0.2626,0.249,0.2491,0.2522,0.2525,0.2527,0.2617,0,0.1649,0.1699,0.1748,0.1805,0.1833,0.1909,0.197,0.205,0.2131,0.2216,0.2282,0.2364,0.2371,0.2416,0.2463,0.2512,0.2553,0.2491,0.2572,0.2574,0.2437,0.2503,0.2536,0.2627,0.263,0.2632,0.2634,0,0.1644,0.1679,0.1736,0.1807,0.1829,0.188,0.1989,0.2055,0.2189,0.2255,0.2363,0.2426,0.253,0.2508,0.2633,0.2601,0.2626,0.2643,0.2647,0.2518,0.2463,0.2554,0.2657,0.2655,0.2654,0.2652,0.2651,0,0.1582,0.1662,0.1706,0.1733,0.1831,0.1881,0.1945,0.2075,0.2156,0.2303,0.2387,0.2504,0.259,0.2647,0.272,0.2691,0.2833,0.2787,0.2684,0.2674,0.2752,0.274,0.286,0.286,0.286,0.286,0.2859,0,0.1549,0.1582,0.1684,0.1702,0.1764,0.1846,0.195,0.2029,0.2182,0.2283,0.2417,0.2513,0.2635,0.2736,0.2759,0.2778,0.2875,0.2707,0.2694,0.2764,0.2753,0.2761,0.2748,0.2863,0.2862,0.2862,0.2861,0,0.1473,0.1544,0.1593,0.1697,0.174,0.1785,0.1953,0.202,0.218,0.232,0.2378,0.2567,0.2692,0.279,0.289,0.2824,0.2846,0.2821,0.2909,0.2898,0.2638,0.2627,0.2698,0.2695,0.2691,0.2688,0.2686,0,0.1435,0.1455,0.1575,0.161,0.1668,0.1768,0.1836,0.2003,0.2087,0.2335,0.238,0.2576,0.2682,0.2723,0.2823,0.286,0.2826,0.2805,0.2696,0.2644,0.2626,0.2619,0.2612,0.2681,0.268,0.2679,0.2678,0,0.1359,0.1421,0.1465,0.154,0.1614,0.1691,0.1803,0.1859,0.2052,0.2226,0.2339,0.2423,0.256,0.2638,0.2698,0.2712,0.2797,0.2769,0.2774,0.2671,0.2624,0.2607,0.2604,0.2667,0.2668,0.267,0.267,0,0.1308,0.1317,0.139,0.1445,0.1531,0.1569,0.1654,0.1752,0.1864,0.2124,0.2162,0.2365,0.2535,0.2566,0.2622,0.2633,0.258,0.2468,0.2487,0.2501,0.2397,0.2305,0.2253,0,0,0,0,0,0.1226,0.1223,0.1279,0.1326,0.1409,0.1459,0.1604,0.1697,0.1897,0.192,0.2037,0.2153,0.2262,0.2373,0.2345,0.2533,0.2582,0.2488,0.246,0.2603,0.2616,0.2512,0,0,0,0,0,0,0.117,0.1204,0.1236,0.1226,0.1231,0.1307,0.1391,0.1525,0.1557,0.177,0.1847,0.2009,0.2152,0.2249,0.2297,0.2329,0.2265,0.2619,0.2613,0.2596,0.2608,0.2618,0.2516,0,0,0,0,0]},{"header":{"parameterUnit":"m.s-1","parameterCategory":2,"la1":30.2991,"la2":30.254,"lo1":-89.0895,"lo2":-89.0444,"dy":0.0017,"dx":0.0017,"nx":28,"ny":28,"refTime":"2024-12-17T09:00:00:Z","depth":"4","parameterNumber":3,"parameterNumberName":"V-component_of_CURRENTS"},"data":[0,0,0,0,0,0,0,0,0,0,0,0,0,0,0,0,0,0,0,0,0,0,0,0,0,0,0,0,0,0,0,0,0,0,0,0,0,0,0,0,0,0,0,0,0,0,0,0,0,0,0,0,0,0,0,0,0,0,0.0231,0.0231,0,0.0183,0.0182,0.0182,0.0154,0.0154,0.0154,0.0154,0.0068,0.0066,0.0064,0,0,0,0,0,0,0,0,0,0,0,0,0,0.0266,0.0265,0.0231,0.0231,0.023,0.0183,0.0182,0.0182,0.0154,0.0154,0.0154,0.0154,0.0069,0.0067,0.0064,0,0,0,0,0,0,0,0,0,0,0,0,0,0.0236,0.0265,0.0231,0.0212,0.021,0.0183,0.0182,0.0181,0.0154,0.0154,0.0154,0.0154,0.007,0.0067,0.0063,0.004,0,0,0.0053,0.0051,0,0,0,0,0,0,0,0,0.0238,0.0235,0.0215,0.0213,0.0211,0.0176,0.0163,0.0133,0.0154,0.0173,0.0154,0.0154,0.0102,0.0096,0.0085,0.0036,0.0032,0.0052,0.005,0.0049,0.0048,0,0,0,0,0,0,0,0.024,0.0236,0.021,0.0215,0.0212,0.0195,0.0191,0.0157,0.0136,0.0172,0.017,0.0167,0.01,0.0088,0.0083,0.0031,0.0052,0.0049,0.0047,0.0046,-0.0032,-0.0032,0,0,0,0,0,0,0.0251,0.0238,0.0212,0.0209,0.0227,0.0194,0.019,0.0186,0.0137,0.013,0.0167,0.0166,0.0094,0.0087,0.0079,0.0075,0.0049,0.0045,0.0043,-0.0032,-0.0032,-0.0032,0,0,0,0,0,0,0.0252,0.0249,0.0214,0.0224,0.0219,0.0194,0.019,0.0185,0.0177,0.0134,0.0127,0.0166,0.0094,0.0084,0.0056,0.0071,0.0044,0.0041,-0.0032,-0.0032,-0.0032,0.005,0,0,0,0,0,0,0.0253,0.025,0.0252,0.0225,0.0219,0.0204,0.019,0.0184,0.0176,0.0174,0.013,0.0122,0.0093,0.0062,0.0053,0.0065,0.0038,-0.0032,-0.0032,-0.0032,0.0047,0.0053,0.0058,0,0,0,0,0,0.0254,0.0256,0.0252,0.0249,0.0222,0.0204,0.0199,0.0181,0.0176,0.0174,0.0146,0.0124,0.0056,0.0059,0.0049,0.0061,-0.0032,-0.0032,-0.0032,0.0045,0.0052,0.0058,0,0,0,0,0,0,0.0267,0.0253,0.0248,0.0245,0.023,0.0201,0.0199,0.0186,0.0162,0.0163,0.0122,0.0112,0.0093,0.0061,0.0065,0.0036,0.0008,0.0006,0.0071,0.0077,0.0082,0.0101,0.0035,0,0,0,0,0,0.0274,0.0275,0.0255,0.0252,0.0249,0.0226,0.0218,0.0206,0.0182,0.0172,0.0143,0.011,0.0083,0.0069,0.0036,0.0019,-0.0019,0.0018,0.0024,0.0028,0.0036,-0.0009,-0.0006,-0.0032,-0.0032,-0.0032,0,0,0.0277,0.0271,0.027,0.0256,0.0245,0.0247,0.0221,0.0213,0.0219,0.0166,0.0162,0.0125,0.0081,0.0066,0.0054,0.0043,0.0014,0.0029,0.0033,0.0038,-0.0008,-0.0006,-0.0004,-0.0032,-0.0032,-0.0032,0,0,0.0289,0.0281,0.029,0.0284,0.0275,0.0263,0.0265,0.0243,0.0237,0.0222,0.0191,0.0166,0.0119,0.0098,0.008,0.0091,0.0041,0.0078,0.0124,0.0081,0.0083,0.0084,0.0037,0.0034,0.0083,0.0084,0.0084,0,0.0294,0.0307,0.0288,0.0298,0.0306,0.0277,0.0294,0.0281,0.0252,0.0255,0.0231,0.0174,0.0138,0.0127,0.0133,0.0106,0.0068,0.0109,0.0089,0.009,0.009,0.0041,0.0037,0.0088,0.0087,0.0087,0.0086,0,0.0317,0.0331,0.0336,0.0347,0.0348,0.0356,0.0344,0.0342,0.033,0.0316,0.0298,0.0243,0.0213,0.0196,0.0168,0.0156,0.0125,0.0101,0.008,0.0098,0.0045,0.0039,0.0093,0.0092,0.0091,0.009,0,0,0.032,0.0349,0.0353,0.0381,0.0381,0.0388,0.04,0.0407,0.0426,0.0382,0.0393,0.0342,0.0311,0.0288,0.0246,0.0209,0.0176,0.0163,0.0158,0.0127,0.0074,0.0046,0.0036,0.0148,0.0147,0.0147,0.0037,0,0.0348,0.0395,0.0398,0.0446,0.0473,0.0464,0.0484,0.0485,0.0473,0.047,0.0414,0.04,0.0347,0.0335,0.029,0.0202,0.0162,0.0207,0.0051,0.0047,0.0029,0.0029,0.0145,0.0032,0.003,0.0029,0.0028,0,0.0373,0.0408,0.0466,0.0521,0.0533,0.0554,0.0594,0.0607,0.0592,0.0583,0.0551,0.0498,0.0443,0.0391,0.0254,0.0283,0.0191,0.0116,0.011,0.0052,0.0007,0.0007,0.0016,0.0017,0.0018,0.0018,0.0019,0,0.0402,0.0457,0.0515,0.0531,0.0579,0.0609,0.0634,0.0643,0.0673,0.0654,0.0657,0.0575,0.0533,0.0409,0.0251,0.0252,0.0085,0.0066,-0.0048,-0.0051,-0.0028,-0.0029,-0.0029,-0.0028,-0.0028,-0.0028,-0.0028,0,0.0434,0.048,0.0538,0.0569,0.0647,0.0661,0.0734,0.0742,0.076,0.0793,0.072,0.0705,0.0534,0.0414,0.027,0.0086,0.0095,-0.004,-0.008,0.0007,0.0012,-0.0034,-0.0033,-0.0032,-0.0031,-0.003,-0.003,0,0.0454,0.049,0.0562,0.0633,0.0663,0.0718,0.0806,0.0853,0.0861,0.0894,0.0889,0.0795,0.0636,0.0451,0.0237,0.0116,-0.0058,-0.0125,-0.0022,-0.0054,-0.017,-0.0164,-0.0255,-0.0256,-0.0258,-0.0259,-0.026,0,0.0469,0.0508,0.061,0.0662,0.07,0.0788,0.0851,0.0899,0.0946,0.0943,0.0952,0.0821,0.0729,0.0415,0.0212,-0.0071,-0.0111,-0.02,-0.018,-0.0163,-0.0193,-0.0184,-0.0176,-0.0263,-0.0263,-0.0264,-0.0264,0,0.0498,0.0535,0.0599,0.0709,0.079,0.0886,0.0972,0.1014,0.1057,0.106,0.1003,0.0842,0.0656,0.0412,0.0186,-0.0015,-0.0141,-0.0217,-0.0215,-0.0196,-0.0174,-0.02,-0.019,-0.027,-0.0269,-0.0268,-0.0268,0,0.052,0.057,0.0659,0.0757,0.0859,0.0954,0.1,0.105,0.1096,0.1081,0.1053,0.086,0.0746,0.0438,0.023,0.0026,-0.0022,-0.0081,-0.0086,-0.0083,-0.0005,0.005,-0.0009,0,0,0,0,0,0.0541,0.0606,0.0699,0.0813,0.0912,0.0979,0.107,0.1105,0.1138,0.1107,0.1086,0.0912,0.0603,0.0471,0.0263,0.019,-0.0065,-0.0063,-0.0136,-0.03,-0.0294,-0.0235,0,0,0,0,0,0,0.0559,0.0648,0.0705,0.0843,0.0924,0.1045,0.1108,0.1128,0.1111,0.11,0.0941,0.0859,0.056,0.0725,0.026,0.0197,0.012,-0.0206,-0.0211,-0.0304,-0.0298,-0.0293,-0.023,0,0,0,0,0]}]]